,,Stat5,,Stat1,,Stat2,,Stat3,,Stat4,,Wind1,,Wind1,
time,status,PA1M_AVG,status,PR1M_SUM,status,RH1M_AVG,status,SR1M_AVG,status,TA1M_AVG,status,W1dAve1m,status,W1sAve1m,
2003-02-12, 00:00:00,VALID,916.529,VALID,0,VALID,95.8561,VALID,0.0339617,VALID,20.3216,VALID,153,VALID,0.907335,
2003-02-12, 00:01:00,VALID,916.549,VALID,0,VALID,95.9413,VALID,0.0169808,VALID,20.3251,VALID,160,VALID,0.720759,
2003-02-12, 00:02:00,VALID,916.555,VALID,0,VALID,95.9349,VALID,0.0339617,VALID,20.3221,VALID,174,VALID,0.255642,
2003-02-12, 00:03:00,VALID,916.572,VALID,0,VALID,95.9057,VALID,0.0849042,VALID,20.3081,VALID,145,VALID,0.64614,
2003-02-12, 00:04:00,VALID,916.592,VALID,0,VALID,95.8739,VALID,0.101885,VALID,20.3057,VALID,168,VALID,0.279356,
2003-02-12, 00:05:00,VALID,916.62,VALID,0,VALID,95.8803,VALID,0.0679233,VALID,20.2733,VALID,171,VALID,0.33491,
2003-02-12, 00:06:00,VALID,916.628,VALID,0,VALID,95.9108,VALID,0.101885,VALID,20.2542,VALID,173,VALID,0.261719,
2003-02-12, 00:07:00,VALID,916.633,VALID,0,VALID,95.9718,VALID,0.0509425,VALID,20.2254,VALID,173,VALID,0.17803,
2003-02-12, 00:08:00,VALID,916.638,VALID,0,VALID,96.0341,VALID,0.0509425,VALID,20.2084,VALID,173,VALID,0.216146,
2003-02-12, 00:09:00,VALID,916.639,VALID,0,VALID,96.1702,VALID,0.0679233,VALID,20.1826,VALID,182,VALID,0.419643,
2003-02-12, 00:10:00,VALID,916.642,VALID,0,VALID,96.319,VALID,0.0679233,VALID,20.1761,VALID,175,VALID,0.85322,
2003-02-12, 00:11:00,VALID,916.655,VALID,0,VALID,96.394,VALID,0.0509425,VALID,20.1701,VALID,173,VALID,0.441741,
2003-02-12, 00:12:00,VALID,916.665,VALID,0,VALID,96.4614,VALID,0.0679233,VALID,20.1572,VALID,168,VALID,0.435045,
2003-02-12, 00:13:00,VALID,916.666,VALID,0,VALID,96.4995,VALID,0,VALID,20.1438,VALID,179,VALID,0.503314,
2003-02-12, 00:14:00,VALID,916.672,VALID,0,VALID,96.5428,VALID,0.0339617,VALID,20.1281,VALID,157,VALID,0.512952,
2003-02-12, 00:15:00,VALID,916.667,VALID,0,VALID,96.675,VALID,0.0849042,VALID,20.1211,VALID,160,VALID,0.56204,
2003-02-12, 00:16:00,VALID,916.683,VALID,0,VALID,96.7386,VALID,0.0339617,VALID,20.1179,VALID,156,VALID,0.60464,
2003-02-12, 00:17:00,VALID,916.687,VALID,0,VALID,96.6852,VALID,-0.0339617,VALID,20.1291,VALID,148,VALID,0.608507,
2003-02-12, 00:18:00,VALID,916.698,VALID,0,VALID,96.6712,VALID,-0.101885,VALID,20.1294,VALID,165,VALID,0.687946,
2003-02-12, 00:19:00,VALID,916.668,VALID,0,VALID,96.778,VALID,-0.0339617,VALID,20.1326,VALID,148,VALID,0.896544,
2003-02-12, 00:20:00,VALID,916.669,VALID,0,VALID,96.6788,VALID,0.0339617,VALID,20.154,VALID,154,VALID,0.839063,
2003-02-12, 00:21:00,VALID,916.659,VALID,0,VALID,96.4576,VALID,0.0679233,VALID,20.157,VALID,138,VALID,0.835045,
2003-02-12, 00:22:00,VALID,916.672,VALID,0,VALID,96.2846,VALID,0.0169808,VALID,20.1306,VALID,126,VALID,1.01705,
2003-02-12, 00:23:00,VALID,916.656,VALID,0,VALID,96.3304,VALID,0.0169808,VALID,20.1473,VALID,131,VALID,0.811883,
2003-02-12, 00:24:00,VALID,916.626,VALID,0,VALID,96.5033,VALID,0,VALID,20.1769,VALID,140,VALID,1.57835,
2003-02-12, 00:25:00,VALID,916.599,VALID,0,VALID,96.3507,VALID,0.0169808,VALID,20.2353,VALID,139,VALID,1.35156,
2003-02-12, 00:26:00,VALID,916.542,VALID,0,VALID,96.0824,VALID,0.0509425,VALID,20.2636,VALID,130,VALID,1.23676,
2003-02-12, 00:27:00,VALID,916.522,VALID,0,VALID,95.8828,VALID,0,VALID,20.3027,VALID,100,VALID,0.456473,
2003-02-12, 00:28:00,VALID,916.509,VALID,0,VALID,95.6692,VALID,0.0509425,VALID,20.345,VALID,125,VALID,0.80161,
2003-02-12, 00:29:00,VALID,916.5,VALID,0,VALID,95.6069,VALID,0.0509425,VALID,20.3547,VALID,121,VALID,0.657812,
2003-02-12, 00:30:00,VALID,916.503,VALID,0,VALID,95.4784,VALID,0.0169808,VALID,20.3512,VALID,89,VALID,0.266295,
2003-02-12, 00:31:00,VALID,916.502,VALID,0,VALID,95.4326,VALID,0.0509425,VALID,20.3676,VALID,118,VALID,0.599432,
2003-02-12, 00:32:00,VALID,916.494,VALID,0,VALID,95.4492,VALID,0.0509425,VALID,20.3676,VALID,129,VALID,0.804276,
2003-02-12, 00:33:00,VALID,916.511,VALID,0,VALID,95.4988,VALID,0.0169808,VALID,20.3703,VALID,118,VALID,0.746553,
2003-02-12, 00:34:00,VALID,916.492,VALID,0,VALID,95.4148,VALID,0.0509425,VALID,20.3867,VALID,101,VALID,0.674242,
2003-02-12, 00:35:00,VALID,916.488,VALID,0,VALID,95.4517,VALID,-0.0679233,VALID,20.3716,VALID,111,VALID,0.834635,
2003-02-12, 00:36:00,VALID,916.494,VALID,0,VALID,95.4822,VALID,0,VALID,20.3724,VALID,113,VALID,0.81808,
2003-02-12, 00:37:00,VALID,916.48,VALID,0,VALID,95.453,VALID,-0.0679233,VALID,20.3428,VALID,81,VALID,0.512311,
2003-02-12, 00:38:00,VALID,916.477,VALID,0,VALID,95.4161,VALID,-0.101885,VALID,20.3363,VALID,81,VALID,0.308482,
2003-02-12, 00:39:00,VALID,916.469,VALID,0,VALID,95.5547,VALID,-0.0509425,VALID,20.3206,VALID,96,VALID,0.873214,
2003-02-12, 00:40:00,VALID,916.452,VALID,0,VALID,95.6882,VALID,-0.0169808,VALID,20.3002,VALID,107,VALID,0.973248,
2003-02-12, 00:41:00,VALID,916.442,VALID,0,VALID,95.6832,VALID,-0.0509425,VALID,20.2821,VALID,122,VALID,0.644531,
2003-02-12, 00:42:00,VALID,916.413,VALID,0,VALID,95.7595,VALID,-0.0339617,VALID,20.2592,VALID,124,VALID,0.683824,
2003-02-12, 00:43:00,VALID,916.397,VALID,0,VALID,95.8548,VALID,0,VALID,20.2299,VALID,120,VALID,0.961411,
2003-02-12, 00:44:00,VALID,916.38,VALID,0,VALID,95.9782,VALID,-0.0679233,VALID,20.1975,VALID,82,VALID,0.779297,
2003-02-12, 00:45:00,VALID,916.352,VALID,0,VALID,96.0138,VALID,-0.101885,VALID,20.1717,VALID,75,VALID,0.389732,
2003-02-12, 00:46:00,VALID,916.323,VALID,0,VALID,96.2783,VALID,-0.0509425,VALID,20.1356,VALID,121,VALID,1.07931,
2003-02-12, 00:47:00,VALID,916.313,VALID,0,VALID,96.5021,VALID,-0.0679233,VALID,20.1259,VALID,132,VALID,0.584152,
2003-02-12, 00:48:00,VALID,916.307,VALID,0,VALID,96.5186,VALID,-0.0169808,VALID,20.1132,VALID,120,VALID,0.66317,
2003-02-12, 00:49:00,VALID,916.31,VALID,0,VALID,96.6216,VALID,-0.0339617,VALID,20.0871,VALID,124,VALID,0.727746,
2003-02-12, 00:50:00,VALID,916.334,VALID,0,VALID,96.6572,VALID,-0.0509425,VALID,20.0777,VALID,140,VALID,0.45148,
2003-02-12, 00:51:00,VALID,916.336,VALID,0,VALID,96.6458,VALID,-0.0339617,VALID,20.0515,VALID,154,VALID,0.792739,
2003-02-12, 00:52:00,VALID,916.328,VALID,0,VALID,96.8378,VALID,-0.0509425,VALID,20.0354,VALID,162,VALID,1.12689,
2003-02-12, 00:53:00,VALID,916.336,VALID,0,VALID,96.8899,VALID,-0.0509425,VALID,20.0225,VALID,160,VALID,1.08811,
2003-02-12, 00:54:00,VALID,916.337,VALID,0,VALID,96.9217,VALID,-0.0679233,VALID,20.0028,VALID,147,VALID,0.948661,
2003-02-12, 00:55:00,VALID,916.327,VALID,0,VALID,97.0972,VALID,-0.0679233,VALID,19.9941,VALID,170,VALID,0.81108,
2003-02-12, 00:56:00,VALID,916.314,VALID,0,VALID,97.1379,VALID,-0.0679233,VALID,19.9904,VALID,131,VALID,0.504464,
2003-02-12, 00:57:00,VALID,916.285,VALID,0,VALID,97.1926,VALID,-0.0339617,VALID,19.9618,VALID,142,VALID,0.792634,
2003-02-12, 00:58:00,VALID,916.26,VALID,0,VALID,97.3121,VALID,-0.0509425,VALID,19.9456,VALID,152,VALID,0.846354,
2003-02-12, 00:59:00,VALID,916.224,VALID,0,VALID,97.4965,VALID,-0.0679233,VALID,19.9548,VALID,127,VALID,0.879112,
2003-02-12, 01:00:00,VALID,916.201,VALID,0,VALID,97.4011,VALID,-0.0679233,VALID,19.9683,VALID,103,VALID,0.664292,
2003-02-12, 01:01:00,VALID,916.194,VALID,0,VALID,97.3973,VALID,-0.0339617,VALID,19.9354,VALID,103,VALID,0.776042,
2003-02-12, 01:02:00,VALID,916.182,VALID,0,VALID,97.4278,VALID,-0.0849042,VALID,19.9225,VALID,96,VALID,0.919271,
2003-02-12, 01:03:00,VALID,916.198,VALID,0,VALID,97.5829,VALID,-0.0679233,VALID,19.929,VALID,109,VALID,1.09821,
2003-02-12, 01:04:00,VALID,916.18,VALID,0,VALID,97.6605,VALID,-0.0679233,VALID,19.9419,VALID,108,VALID,0.906723,
2003-02-12, 01:05:00,VALID,916.171,VALID,0,VALID,97.6592,VALID,0,VALID,19.967,VALID,120,VALID,0.876562,
2003-02-12, 01:06:00,VALID,916.156,VALID,0,VALID,97.6452,VALID,0.0339617,VALID,19.9918,VALID,129,VALID,0.914732,
2003-02-12, 01:07:00,VALID,916.127,VALID,0,VALID,97.6173,VALID,0.0169808,VALID,20.0379,VALID,114,VALID,0.882576,
2003-02-12, 01:08:00,VALID,916.089,VALID,0,VALID,97.3896,VALID,0,VALID,20.0901,VALID,95,VALID,0.741571,
2003-02-12, 01:09:00,VALID,916.082,VALID,0,VALID,97.2193,VALID,0.0509425,VALID,20.0896,VALID,114,VALID,1.06939,
2003-02-12, 01:10:00,VALID,916.037,VALID,0,VALID,97.1341,VALID,0.0339617,VALID,20.1182,VALID,122,VALID,1.03101,
2003-02-12, 01:11:00,VALID,916.034,VALID,0,VALID,96.9395,VALID,0,VALID,20.1669,VALID,112,VALID,1.06141,
2003-02-12, 01:12:00,VALID,915.971,VALID,0,VALID,96.6483,VALID,0.0339617,VALID,20.2094,VALID,105,VALID,0.981027,
2003-02-12, 01:13:00,VALID,915.925,VALID,0,VALID,96.5211,VALID,0.0509425,VALID,20.2313,VALID,120,VALID,0.966856,
2003-02-12, 01:14:00,VALID,915.901,VALID,0,VALID,96.3469,VALID,0.0339617,VALID,20.2736,VALID,100,VALID,0.376116,
2003-02-12, 01:15:00,VALID,915.903,VALID,0,VALID,96.0926,VALID,0.0509425,VALID,20.3022,VALID,101,VALID,0.590179,
2003-02-12, 01:16:00,VALID,915.897,VALID,0,VALID,95.9438,VALID,0.0679233,VALID,20.328,VALID,118,VALID,0.505445,
2003-02-12, 01:17:00,VALID,915.907,VALID,0,VALID,95.8739,VALID,0.0339617,VALID,20.3382,VALID,138,VALID,0.514391,
2003-02-12, 01:18:00,VALID,915.921,VALID,0,VALID,95.8599,VALID,0.0509425,VALID,20.3636,VALID,147,VALID,0.97932,
2003-02-12, 01:19:00,VALID,915.923,VALID,0,VALID,95.7645,VALID,0.0679233,VALID,20.373,VALID,159,VALID,0.93821,
2003-02-12, 01:20:00,VALID,915.928,VALID,0,VALID,95.6577,VALID,-0.0509425,VALID,20.3848,VALID,170,VALID,0.930556,
2003-02-12, 01:21:00,VALID,915.927,VALID,0,VALID,95.6717,VALID,-0.0339617,VALID,20.3942,VALID,165,VALID,0.898438,
2003-02-12, 01:22:00,VALID,915.921,VALID,0,VALID,95.6132,VALID,-0.0679233,VALID,20.4141,VALID,151,VALID,0.762784,
2003-02-12, 01:23:00,VALID,915.915,VALID,0,VALID,95.5649,VALID,-0.0679233,VALID,20.3975,VALID,152,VALID,1.27344,
2003-02-12, 01:24:00,VALID,915.902,VALID,0,VALID,95.645,VALID,-0.0509425,VALID,20.3781,VALID,163,VALID,0.958482,
2003-02-12, 01:25:00,VALID,915.869,VALID,0,VALID,95.7862,VALID,-0.0339617,VALID,20.388,VALID,150,VALID,0.980587,
2003-02-12, 01:26:00,VALID,915.851,VALID,0,VALID,95.8179,VALID,-0.0339617,VALID,20.3679,VALID,149,VALID,1.45086,
2003-02-12, 01:27:00,VALID,915.829,VALID,0,VALID,95.9388,VALID,-0.0509425,VALID,20.3816,VALID,151,VALID,1.43704,
2003-02-12, 01:28:00,VALID,915.802,VALID,0,VALID,96.0176,VALID,-0.0679233,VALID,20.3915,VALID,145,VALID,1.15885,
2003-02-12, 01:29:00,VALID,915.806,VALID,0,VALID,95.9947,VALID,-0.0849042,VALID,20.4139,VALID,148,VALID,1.32422,
2003-02-12, 01:30:00,VALID,915.811,VALID,0,VALID,95.9311,VALID,-0.0339617,VALID,20.4236,VALID,146,VALID,1.90982,
2003-02-12, 01:31:00,VALID,915.806,VALID,0,VALID,95.7315,VALID,-0.0169808,VALID,20.4586,VALID,149,VALID,2.11364,
2003-02-12, 01:32:00,VALID,915.813,VALID,0,VALID,95.5306,VALID,-0.101885,VALID,20.5012,VALID,145,VALID,1.31272,
2003-02-12, 01:33:00,VALID,915.812,VALID,0,VALID,95.425,VALID,-0.0339617,VALID,20.5211,VALID,159,VALID,1.2096,
2003-02-12, 01:34:00,VALID,915.791,VALID,0,VALID,95.3246,VALID,-0.0509425,VALID,20.53,VALID,141,VALID,1.29545,
2003-02-12, 01:35:00,VALID,915.779,VALID,0,VALID,95.2839,VALID,0.0339617,VALID,20.5349,VALID,144,VALID,1.14515,
2003-02-12, 01:36:00,VALID,915.754,VALID,0,VALID,95.172,VALID,0.101885,VALID,20.557,VALID,135,VALID,1.28906,
2003-02-12, 01:37:00,VALID,915.731,VALID,0,VALID,95.055,VALID,0.101885,VALID,20.5767,VALID,147,VALID,1.21402,
2003-02-12, 01:38:00,VALID,915.705,VALID,0,VALID,94.9571,VALID,0.101885,VALID,20.5966,VALID,127,VALID,0.984375,
2003-02-12, 01:39:00,VALID,915.672,VALID,0,VALID,94.8897,VALID,0.0849042,VALID,20.5802,VALID,129,VALID,0.816964,
2003-02-12, 01:40:00,VALID,915.651,VALID,0,VALID,94.8719,VALID,0.0849042,VALID,20.5633,VALID,118,VALID,0.758049,
2003-02-12, 01:41:00,VALID,915.641,VALID,0,VALID,94.863,VALID,0.0849042,VALID,20.5638,VALID,120,VALID,0.66183,
2003-02-12, 01:42:00,VALID,915.638,VALID,0,VALID,94.9304,VALID,0.0849042,VALID,20.5406,VALID,143,VALID,0.918527,
2003-02-12, 01:43:00,VALID,915.647,VALID,0,VALID,94.966,VALID,0.0849042,VALID,20.5212,VALID,138,VALID,0.715436,
2003-02-12, 01:44:00,VALID,915.644,VALID,0,VALID,95.0041,VALID,0.101885,VALID,20.5056,VALID,149,VALID,0.712582,
2003-02-12, 01:45:00,VALID,915.655,VALID,0,VALID,95.083,VALID,0.0849042,VALID,20.4755,VALID,123,VALID,0.422105,
2003-02-12, 01:46:00,VALID,915.674,VALID,0,VALID,95.1275,VALID,0.0679233,VALID,20.4735,VALID,148,VALID,0.0437973,
2003-02-12, 01:47:00,VALID,915.672,VALID,0,VALID,95.1097,VALID,0.101885,VALID,20.4471,VALID,148,VALID,0.00889757,
2003-02-12, 01:48:00,VALID,915.651,VALID,0,VALID,95.1504,VALID,0.101885,VALID,20.4213,VALID,148,VALID,0.174107,
2003-02-12, 01:49:00,VALID,915.62,VALID,0,VALID,95.2521,VALID,0.101885,VALID,20.4083,VALID,177,VALID,0.338068,
2003-02-12, 01:50:00,VALID,915.611,VALID,0,VALID,95.3691,VALID,0.0339617,VALID,20.3962,VALID,193,VALID,0.170536,
2003-02-12, 01:51:00,VALID,915.587,VALID,0,VALID,95.4199,VALID,0,VALID,20.4072,VALID,193,VALID,0.151339,
2003-02-12, 01:52:00,VALID,915.605,VALID,0,VALID,95.4225,VALID,-0.0509425,VALID,20.391,VALID,193,VALID,0.215909,
2003-02-12, 01:53:00,VALID,915.597,VALID,0,VALID,95.4276,VALID,-0.0509425,VALID,20.381,VALID,192,VALID,0.0972451,
2003-02-12, 01:54:00,VALID,915.609,VALID,0,VALID,95.4733,VALID,-0.0169808,VALID,20.3622,VALID,192,VALID,0.0195313,
2003-02-12, 01:55:01,VALID,915.613,VALID,0,VALID,95.5255,VALID,-0.0339617,VALID,20.3487,VALID,184,VALID,0.09375,
2003-02-12, 01:56:00,VALID,915.579,VALID,0,VALID,95.5267,VALID,-0.0509425,VALID,20.3425,VALID,153,VALID,0.243273,
2003-02-12, 01:57:00,VALID,915.581,VALID,0,VALID,95.6018,VALID,-0.0509425,VALID,20.3132,VALID,148,VALID,0.479464,
2003-02-12, 01:58:01,VALID,915.56,VALID,0,VALID,95.603,VALID,-0.0169808,VALID,20.2945,VALID,104,VALID,0.206913,
2003-02-12, 01:59:00,VALID,915.536,VALID,0,VALID,95.5941,VALID,-0.0339617,VALID,20.2684,VALID,83,VALID,0.197321,
2003-02-12, 02:00:00,VALID,915.523,VALID,0,VALID,95.6971,VALID,-0.0339617,VALID,20.2291,VALID,99,VALID,0.353125,
2003-02-12, 02:01:00,VALID,915.501,VALID,0,VALID,95.8154,VALID,0,VALID,20.21,VALID,89,VALID,0.65767,
2003-02-12, 02:02:00,VALID,915.484,VALID,0,VALID,96.1091,VALID,-0.0509425,VALID,20.193,VALID,94,VALID,0.594572,
2003-02-12, 02:03:00,VALID,915.468,VALID,0,VALID,96.1715,VALID,-0.0169808,VALID,20.1965,VALID,156,VALID,0.507353,
2003-02-12, 02:04:00,VALID,915.459,VALID,0,VALID,96.2388,VALID,-0.0339617,VALID,20.1871,VALID,124,VALID,0.672585,
2003-02-12, 02:05:00,VALID,915.464,VALID,0,VALID,96.2872,VALID,0,VALID,20.1707,VALID,93,VALID,0.378472,
2003-02-12, 02:06:00,VALID,915.465,VALID,0,VALID,96.525,VALID,-0.0169808,VALID,20.1739,VALID,144,VALID,1.18013,
2003-02-12, 02:07:00,VALID,915.483,VALID,0,VALID,96.4639,VALID,-0.0169808,VALID,20.161,VALID,110,VALID,0.579545,
2003-02-12, 02:08:00,VALID,915.473,VALID,0,VALID,96.4372,VALID,-0.0169808,VALID,20.1483,VALID,92,VALID,0.443973,
2003-02-12, 02:09:00,VALID,915.468,VALID,0,VALID,96.4932,VALID,-0.0339617,VALID,20.1125,VALID,88,VALID,0.65625,
2003-02-12, 02:10:00,VALID,915.452,VALID,0,VALID,96.5529,VALID,-0.0169808,VALID,20.0667,VALID,76,VALID,0.681581,
2003-02-12, 02:11:00,VALID,915.436,VALID,0,VALID,96.6763,VALID,0,VALID,20.0677,VALID,91,VALID,0.827097,
2003-02-12, 02:12:00,VALID,915.417,VALID,0,VALID,96.7233,VALID,-0.0169808,VALID,20.0386,VALID,77,VALID,0.625919,
2003-02-12, 02:13:01,VALID,915.378,VALID,0,VALID,96.7017,VALID,0.0169808,VALID,20.0026,VALID,76,VALID,0.617188,
2003-02-12, 02:14:00,VALID,915.356,VALID,0,VALID,96.7984,VALID,0,VALID,19.9732,VALID,65,VALID,0.632378,
2003-02-12, 02:15:00,VALID,915.319,VALID,0,VALID,96.8403,VALID,-0.0169808,VALID,19.9675,VALID,61,VALID,0.769196,
2003-02-12, 02:16:00,VALID,915.309,VALID,0,VALID,96.8912,VALID,-0.0169808,VALID,19.9409,VALID,57,VALID,0.949574,
2003-02-12, 02:17:00,VALID,915.258,VALID,0,VALID,97.0171,VALID,0,VALID,19.9312,VALID,60,VALID,0.917857,
2003-02-12, 02:18:00,VALID,915.247,VALID,0,VALID,97.073,VALID,-0.0169808,VALID,19.922,VALID,51,VALID,0.802009,
2003-02-12, 02:19:00,VALID,915.24,VALID,0,VALID,97.0044,VALID,-0.0509425,VALID,19.9125,VALID,50,VALID,0.654119,
2003-02-12, 02:20:00,VALID,915.224,VALID,0,VALID,96.9662,VALID,-0.0339617,VALID,19.8835,VALID,44,VALID,0.643709,
2003-02-12, 02:21:00,VALID,915.228,VALID,0,VALID,97.0082,VALID,-0.0169808,VALID,19.8379,VALID,37,VALID,0.647978,
2003-02-12, 02:22:00,VALID,915.222,VALID,0,VALID,96.9141,VALID,0,VALID,19.822,VALID,35,VALID,0.558475,
2003-02-12, 02:23:00,VALID,915.246,VALID,0,VALID,96.8556,VALID,-0.0169808,VALID,19.7701,VALID,32,VALID,0.471137,
2003-02-12, 02:24:00,VALID,915.233,VALID,0,VALID,96.82,VALID,-0.0509425,VALID,19.7382,VALID,32,VALID,0.508705,
2003-02-12, 02:25:01,VALID,915.236,VALID,0,VALID,96.764,VALID,0,VALID,19.6893,VALID,32,VALID,0.499053,
2003-02-12, 02:26:00,VALID,915.233,VALID,0,VALID,97.0171,VALID,-0.0339617,VALID,19.6632,VALID,32,VALID,0.447098,
2003-02-12, 02:27:00,VALID,915.225,VALID,0,VALID,97.3553,VALID,0,VALID,19.696,VALID,44,VALID,0.39933,
2003-02-12, 02:28:00,VALID,915.206,VALID,0,VALID,97.4634,VALID,-0.0679233,VALID,19.7057,VALID,44,VALID,0.394413,
2003-02-12, 02:29:00,VALID,915.181,VALID,0,VALID,97.5117,VALID,-0.0509425,VALID,19.7283,VALID,44,VALID,0.580387,
2003-02-12, 02:30:00,VALID,915.157,VALID,0,VALID,97.3718,VALID,-0.0169808,VALID,19.7119,VALID,44,VALID,0.518612,
2003-02-12, 02:31:00,VALID,915.127,VALID,0,VALID,96.9535,VALID,-0.0509425,VALID,19.6604,VALID,44,VALID,0.579309,
2003-02-12, 02:32:00,VALID,915.094,VALID,0,VALID,96.7195,VALID,-0.0169808,VALID,19.5734,VALID,44,VALID,0.719401,
2003-02-12, 02:33:00,VALID,915.063,VALID,0,VALID,97.0578,VALID,-0.0169808,VALID,19.5408,VALID,47,VALID,0.850223,
2003-02-12, 02:34:00,VALID,915.034,VALID,0,VALID,97.4075,VALID,0,VALID,19.5632,VALID,51,VALID,0.817472,
2003-02-12, 02:35:00,VALID,915.02,VALID,0,VALID,97.8169,VALID,-0.0509425,VALID,19.6057,VALID,64,VALID,0.842188,
2003-02-12, 02:36:00,VALID,915.012,VALID,0,VALID,98.2683,VALID,-0.0679233,VALID,19.6962,VALID,84,VALID,0.844643,
2003-02-12, 02:37:00,VALID,915.015,VALID,0,VALID,98.3065,VALID,-0.0509425,VALID,19.7835,VALID,107,VALID,0.816525,
2003-02-12, 02:38:00,VALID,915.022,VALID,0,VALID,98.2836,VALID,-0.0509425,VALID,19.8514,VALID,109,VALID,0.775905,
2003-02-12, 02:39:00,VALID,915.009,VALID,0,VALID,98.089,VALID,-0.0509425,VALID,19.9292,VALID,111,VALID,0.633961,
2003-02-12, 02:40:01,VALID,915.016,VALID,0,VALID,97.7279,VALID,-0.0339617,VALID,19.9683,VALID,122,VALID,0.567945,
2003-02-12, 02:41:00,VALID,915.011,VALID,0,VALID,97.5028,VALID,-0.0509425,VALID,19.9971,VALID,118,VALID,0.664931,
2003-02-12, 02:42:00,VALID,915.01,VALID,0,VALID,97.2447,VALID,-0.0509425,VALID,20.0227,VALID,117,VALID,0.645312,
2003-02-12, 02:43:01,VALID,915.014,VALID,0,VALID,97.0311,VALID,-0.0509425,VALID,20.0394,VALID,128,VALID,0.84446,
2003-02-12, 02:44:00,VALID,915.019,VALID,0,VALID,96.8543,VALID,-0.0679233,VALID,20.0458,VALID,129,VALID,0.792857,
2003-02-12, 02:45:00,VALID,915.024,VALID,0,VALID,96.7259,VALID,-0.0679233,VALID,20.0389,VALID,129,VALID,0.675446,
2003-02-12, 02:46:00,VALID,915.037,VALID,0,VALID,96.6191,VALID,-0.0679233,VALID,20.0292,VALID,132,VALID,0.624053,
2003-02-12, 02:47:00,VALID,915.031,VALID,0,VALID,96.6038,VALID,-0.0339617,VALID,20.0128,VALID,129,VALID,0.703536,
2003-02-12, 02:48:00,VALID,915.032,VALID,0,VALID,96.4805,VALID,-0.0679233,VALID,20.0001,VALID,126,VALID,0.527574,
2003-02-12, 02:49:00,VALID,915.011,VALID,0,VALID,96.427,VALID,0,VALID,19.9839,VALID,127,VALID,0.632102,
2003-02-12, 02:50:00,VALID,914.968,VALID,0,VALID,96.5072,VALID,-0.0339617,VALID,19.9513,VALID,128,VALID,0.88151,
2003-02-12, 02:51:00,VALID,914.942,VALID,0,VALID,96.4601,VALID,0,VALID,19.9489,VALID,131,VALID,0.710491,
2003-02-12, 02:52:00,VALID,914.916,VALID,0,VALID,96.4639,VALID,-0.0169808,VALID,19.9163,VALID,124,VALID,0.808949,
2003-02-12, 02:53:00,VALID,914.896,VALID,0,VALID,96.525,VALID,-0.0849042,VALID,19.884,VALID,124,VALID,0.746205,
2003-02-12, 02:54:00,VALID,914.872,VALID,0,VALID,96.6381,VALID,-0.0339617,VALID,19.8641,VALID,127,VALID,0.757143,
2003-02-12, 02:55:00,VALID,914.858,VALID,0,VALID,96.8327,VALID,-0.0339617,VALID,19.8653,VALID,123,VALID,0.768703,
2003-02-12, 02:56:00,VALID,914.83,VALID,0,VALID,97.026,VALID,-0.0169808,VALID,19.871,VALID,134,VALID,0.791324,
2003-02-12, 02:57:00,VALID,914.822,VALID,0,VALID,97.026,VALID,-0.0509425,VALID,19.8646,VALID,132,VALID,0.659926,
2003-02-12, 02:58:01,VALID,914.82,VALID,0,VALID,97.0629,VALID,-0.0509425,VALID,19.8613,VALID,142,VALID,0.769886,
2003-02-12, 02:59:00,VALID,914.818,VALID,0,VALID,97.0807,VALID,-0.0169808,VALID,19.8613,VALID,143,VALID,0.789931,
2003-02-12, 03:00:01,VALID,914.812,VALID,0,VALID,96.9611,VALID,-0.0339617,VALID,19.8484,VALID,134,VALID,0.707143,
2003-02-12, 03:01:00,VALID,914.819,VALID,0,VALID,97.0565,VALID,-0.0339617,VALID,19.8457,VALID,140,VALID,0.492424,
2003-02-12, 03:02:01,VALID,914.823,VALID,0,VALID,96.9509,VALID,-0.101885,VALID,19.8223,VALID,133,VALID,0.286607,
2003-02-12, 03:03:01,VALID,914.828,VALID,0,VALID,96.9916,VALID,-0.0509425,VALID,19.8061,VALID,132,VALID,0.104911,
2003-02-12, 03:04:00,VALID,914.852,VALID,0,VALID,97.0667,VALID,-0.0169808,VALID,19.7962,VALID,132,VALID,0,
2003-02-12, 03:05:01,VALID,914.841,VALID,0,VALID,97.0374,VALID,-0.0339617,VALID,19.7703,VALID,132,VALID,0,
2003-02-12, 03:06:00,VALID,914.842,VALID,0,VALID,97.0717,VALID,-0.0849042,VALID,19.7641,VALID,132,VALID,0.0409007,
2003-02-12, 03:07:00,VALID,914.843,VALID,0,VALID,97.1048,VALID,-0.101885,VALID,19.7547,VALID,133,VALID,0.352273,
2003-02-12, 03:08:00,VALID,914.841,VALID,0,VALID,97.1697,VALID,-0.0679233,VALID,19.7484,VALID,133,VALID,0.343967,
2003-02-12, 03:09:01,VALID,914.824,VALID,0,VALID,97.3935,VALID,-0.101885,VALID,19.7484,VALID,133,VALID,0.279687,
2003-02-12, 03:10:01,VALID,914.817,VALID,0,VALID,97.5155,VALID,-0.0509425,VALID,19.7778,VALID,123,VALID,0.329545,
2003-02-12, 03:11:01,VALID,914.78,VALID,0,VALID,97.4672,VALID,-0.0849042,VALID,19.7813,VALID,123,VALID,0.295759,
2003-02-12, 03:12:01,VALID,914.777,VALID,0,VALID,97.499,VALID,-0.0849042,VALID,19.7711,VALID,123,VALID,0.427455,
2003-02-12, 03:13:01,VALID,914.775,VALID,0,VALID,97.5753,VALID,-0.0679233,VALID,19.778,VALID,123,VALID,0.491004,
2003-02-12, 03:14:01,VALID,914.773,VALID,0,VALID,97.5791,VALID,-0.0849042,VALID,19.7646,VALID,131,VALID,0.556538,
2003-02-12, 03:15:01,VALID,914.778,VALID,0,VALID,97.5664,VALID,-0.0849042,VALID,19.7643,VALID,134,VALID,0.366958,
2003-02-12, 03:16:00,VALID,914.764,VALID,0,VALID,97.5575,VALID,-0.0849042,VALID,19.7653,VALID,115,VALID,0.423769,
2003-02-12, 03:17:01,VALID,914.75,VALID,0,VALID,97.6351,VALID,-0.0509425,VALID,19.7422,VALID,106,VALID,0.521918,
2003-02-12, 03:18:01,VALID,914.738,VALID,0,VALID,97.7419,VALID,-0.0339617,VALID,19.7581,VALID,84,VALID,0.541071,
2003-02-12, 03:19:01,VALID,914.714,VALID,0,VALID,97.396,VALID,-0.0849042,VALID,19.7196,VALID,76,VALID,0.676136,
2003-02-12, 03:20:01,VALID,914.702,VALID,0,VALID,97.2943,VALID,0,VALID,19.6709,VALID,72,VALID,0.533036,
2003-02-12, 03:21:01,VALID,914.673,VALID,0,VALID,97.4431,VALID,0.0679233,VALID,19.6433,VALID,76,VALID,0.692187,
2003-02-12, 03:22:01,VALID,914.648,VALID,0,VALID,97.6033,VALID,0.0169808,VALID,19.6562,VALID,69,VALID,0.579072,
2003-02-12, 03:23:01,VALID,914.623,VALID,0,VALID,97.4799,VALID,0.0679233,VALID,19.65,VALID,76,VALID,0.456414,
2003-02-12, 03:24:01,VALID,914.59,VALID,0,VALID,97.6465,VALID,0.0679233,VALID,19.6562,VALID,80,VALID,0.295037,
2003-02-12, 03:25:01,VALID,914.581,VALID,0,VALID,97.5295,VALID,0.0339617,VALID,19.6721,VALID,72,VALID,0.0565814,
2003-02-12, 03:26:01,VALID,914.58,VALID,0,VALID,97.2994,VALID,0.0169808,VALID,19.6562,VALID,72,VALID,0.0143229,
2003-02-12, 03:27:01,VALID,914.596,VALID,0,VALID,97.1442,VALID,0.0849042,VALID,19.6104,VALID,72,VALID,0,
2003-02-12, 03:28:01,VALID,914.622,VALID,0,VALID,97.1646,VALID,0.0679233,VALID,19.6104,VALID,71,VALID,0,
2003-02-12, 03:29:01,VALID,914.657,VALID,0,VALID,97.1506,VALID,0.0849042,VALID,19.6047,VALID,48,VALID,0.120536,
2003-02-12, 03:30:01,VALID,914.689,VALID,0,VALID,96.853,VALID,0.0679233,VALID,19.5587,VALID,35,VALID,0.416295,
2003-02-12, 03:31:01,VALID,914.716,VALID,0,VALID,96.6127,VALID,0.0679233,VALID,19.4986,VALID,33,VALID,0.34304,
2003-02-12, 03:32:01,VALID,914.742,VALID,0,VALID,96.792,VALID,0.0849042,VALID,19.466,VALID,33,VALID,0.340461,